owner,sensor,date,latitude,longitude,mass_concentration_of_chlorophyll_in_sea_water,qcFlag 
SCCF RECON,ioos:station:SCCF:13:1,2013-06-01T00:00:00Z,26.5255,-82.0032,4.75,1111122 
SCCF RECON,ioos:station:SCCF:13:1,2013-06-01T01:00:00Z,26.5255,-82.0032,18.55,1111122 
SCCF RECON,ioos:station:SCCF:13:1,2013-06-01T02:00:00Z,26.5255,-82.0032,5.43,1111122 
SCCF RECON,ioos:station:SCCF:13:1,2013-06-01T03:00:00Z,26.5255,-82.0032,3.85,1111122 
SCCF RECON,ioos:station:SCCF:13:1,2013-06-01T04:00:00Z,26.5255,-82.0032,3.91,1111122 
SCCF RECON,ioos:station:SCCF:13:1,2013-06-01T05:00:00Z,26.5255,-82.0032,3.99,1111122 
SCCF RECON,ioos:station:SCCF:13:1,2013-06-01T06:00:00Z,26.5255,-82.0032,3.89,1111122 
SCCF RECON,ioos:station:SCCF:13:1,2013-06-01T07:00:00Z,26.5255,-82.0032,4.25,1111122 
SCCF RECON,ioos:station:SCCF:13:1,2013-06-01T08:00:00Z,26.5255,-82.0032,4.32,1111122 
SCCF RECON,ioos:station:SCCF:13:1,2013-06-01T09:00:00Z,26.5255,-82.0032,3.77,1111122 
SCCF RECON,ioos:station:SCCF:13:1,2013-06-01T10:00:00Z,26.5255,-82.0032,2.92,1111122 
SCCF RECON,ioos:station:SCCF:13:1,2013-06-01T11:00:00Z,26.5255,-82.0032,3.38,1111122 
SCCF RECON,ioos:station:SCCF:13:1,2013-06-01T12:00:00Z,26.5255,-82.0032,3.72,1111122 
SCCF RECON,ioos:station:SCCF:13:1,2013-06-01T13:00:00Z,26.5255,-82.0032,3.66,1111122 
SCCF RECON,ioos:station:SCCF:13:1,2013-06-01T14:00:00Z,26.5255,-82.0032,3.76,1111122 
SCCF RECON,ioos:station:SCCF:13:1,2013-06-01T15:00:00Z,26.5255,-82.0032,4.76,1111122 
SCCF RECON,ioos:station:SCCF:13:1,2013-06-01T16:00:00Z,26.5255,-82.0032,4.61,1111122 
SCCF RECON,ioos:station:SCCF:13:1,2013-06-01T17:00:00Z,26.5255,-82.0032,3.5,1111122 
SCCF RECON,ioos:station:SCCF:13:1,2013-06-01T18:00:00Z,26.5255,-82.0032,2.89,1111122 
SCCF RECON,ioos:station:SCCF:13:1,2013-06-01T19:00:00Z,26.5255,-82.0032,3.15,1111122 
SCCF RECON,ioos:station:SCCF:13:1,2013-06-01T20:00:00Z,26.5255,-82.0032,3.49,1111122 
SCCF RECON,ioos:station:SCCF:13:1,2013-06-01T21:00:00Z,26.5255,-82.0032,4.35,1111122 
SCCF RECON,ioos:station:SCCF:13:1,2013-06-01T22:00:00Z,26.5255,-82.0032,3.71,1111122 
SCCF RECON,ioos:station:SCCF:13:1,2013-06-01T23:00:00Z,26.5255,-82.0032,3.26,1111122 
SCCF RECON,ioos:station:SCCF:13:1,2013-06-02T00:00:00Z,26.5255,-82.0032,3.72,1111122 
SCCF RECON,ioos:station:SCCF:13:1,2013-06-02T01:00:00Z,26.5255,-82.0032,4.06,1111122 
SCCF RECON,ioos:station:SCCF:13:1,2013-06-02T02:00:00Z,26.5255,-82.0032,4.35,1111122 
SCCF RECON,ioos:station:SCCF:13:1,2013-06-02T03:00:00Z,26.5255,-82.0032,4.24,1111122 
SCCF RECON,ioos:station:SCCF:13:1,2013-06-02T04:00:00Z,26.5255,-82.0032,4.31,1111122 
SCCF RECON,ioos:station:SCCF:13:1,2013-06-02T05:00:00Z,26.5255,-82.0032,3.21,1111122 
SCCF RECON,ioos:station:SCCF:13:1,2013-06-02T06:00:00Z,26.5255,-82.0032,3.62,1111122 
SCCF RECON,ioos:station:SCCF:13:1,2013-06-02T07:00:00Z,26.5255,-82.0032,4.05,1111122 
SCCF RECON,ioos:station:SCCF:13:1,2013-06-02T08:00:00Z,26.5255,-82.0032,4.19,1111122 
SCCF RECON,ioos:station:SCCF:13:1,2013-06-02T09:00:00Z,26.5255,-82.0032,4.33,1111122 
SCCF RECON,ioos:station:SCCF:13:1,2013-06-02T10:00:00Z,26.5255,-82.0032,3.73,1111122 
SCCF RECON,ioos:station:SCCF:13:1,2013-06-02T11:00:00Z,26.5255,-82.0032,3.04,1111122 
SCCF RECON,ioos:station:SCCF:13:1,2013-06-02T12:00:00Z,26.5255,-82.0032,3.19,1111122 
SCCF RECON,ioos:station:SCCF:13:1,2013-06-02T13:00:00Z,26.5255,-82.0032,3.15,1111122 
SCCF RECON,ioos:station:SCCF:13:1,2013-06-02T14:00:00Z,26.5255,-82.0032,3.22,1111122 
SCCF RECON,ioos:station:SCCF:13:1,2013-06-02T15:00:00Z,26.5255,-82.0032,3.22,1111122 
SCCF RECON,ioos:station:SCCF:13:1,2013-06-02T16:00:00Z,26.5255,-82.0032,3.0,1111122 
SCCF RECON,ioos:station:SCCF:13:1,2013-06-02T17:00:00Z,26.5255,-82.0032,3.13,1111122 
SCCF RECON,ioos:station:SCCF:13:1,2013-06-02T18:00:00Z,26.5255,-82.0032,2.83,1111122 
SCCF RECON,ioos:station:SCCF:13:1,2013-06-02T19:00:00Z,26.5255,-82.0032,3.18,1111122 
SCCF RECON,ioos:station:SCCF:13:1,2013-06-02T20:00:00Z,26.5255,-82.0032,3.57,1111122 
SCCF RECON,ioos:station:SCCF:13:1,2013-06-02T21:00:00Z,26.5255,-82.0032,4.2,1111122 
SCCF RECON,ioos:station:SCCF:13:1,2013-06-02T22:00:00Z,26.5255,-82.0032,4.91,1111122 
SCCF RECON,ioos:station:SCCF:13:1,2013-06-02T23:00:00Z,26.5255,-82.0032,3.16,1111122 
SCCF RECON,ioos:station:SCCF:13:1,2013-06-03T00:00:00Z,26.5255,-82.0032,3.3,1111122 
SCCF RECON,ioos:station:SCCF:13:1,2013-06-03T01:00:00Z,26.5255,-82.0032,3.68,1111122 
SCCF RECON,ioos:station:SCCF:13:1,2013-06-03T02:00:00Z,26.5255,-82.0032,3.41,1111122 
SCCF RECON,ioos:station:SCCF:13:1,2013-06-03T03:00:00Z,26.5255,-82.0032,3.74,1111122 
SCCF RECON,ioos:station:SCCF:13:1,2013-06-03T04:00:00Z,26.5255,-82.0032,3.14,1111122 
SCCF RECON,ioos:station:SCCF:13:1,2013-06-03T05:00:00Z,26.5255,-82.0032,2.71,1111122 
SCCF RECON,ioos:station:SCCF:13:1,2013-06-03T06:00:00Z,26.5255,-82.0032,3.4,1111122 
SCCF RECON,ioos:station:SCCF:13:1,2013-06-03T07:00:00Z,26.5255,-82.0032,2.69,1111122 
SCCF RECON,ioos:station:SCCF:13:1,2013-06-03T08:00:00Z,26.5255,-82.0032,3.24,1111122 
SCCF RECON,ioos:station:SCCF:13:1,2013-06-03T09:00:00Z,26.5255,-82.0032,3.34,1111122 
SCCF RECON,ioos:station:SCCF:13:1,2013-06-03T10:00:00Z,26.5255,-82.0032,3.91,1111122 
SCCF RECON,ioos:station:SCCF:13:1,2013-06-03T11:00:00Z,26.5255,-82.0032,3.13,1111122 
SCCF RECON,ioos:station:SCCF:13:1,2013-06-03T12:00:00Z,26.5255,-82.0032,2.67,1111122 
SCCF RECON,ioos:station:SCCF:13:1,2013-06-03T13:00:00Z,26.5255,-82.0032,2.84,1111122 
SCCF RECON,ioos:station:SCCF:13:1,2013-06-03T14:00:00Z,26.5255,-82.0032,3.0,1111122 
SCCF RECON,ioos:station:SCCF:13:1,2013-06-03T15:00:00Z,26.5255,-82.0032,3.36,1111122 
SCCF RECON,ioos:station:SCCF:13:1,2013-06-03T16:00:00Z,26.5255,-82.0032,3.47,1111122 
SCCF RECON,ioos:station:SCCF:13:1,2013-06-03T17:00:00Z,26.5255,-82.0032,3.53,1111122 
SCCF RECON,ioos:station:SCCF:13:1,2013-06-03T18:00:00Z,26.5255,-82.0032,2.92,1111122 
SCCF RECON,ioos:station:SCCF:13:1,2013-06-03T19:00:00Z,26.5255,-82.0032,3.63,1111122 
SCCF RECON,ioos:station:SCCF:13:1,2013-06-03T20:00:00Z,26.5255,-82.0032,3.58,1111122 
SCCF RECON,ioos:station:SCCF:13:1,2013-06-03T21:00:00Z,26.5255,-82.0032,4.12,1111122 
SCCF RECON,ioos:station:SCCF:13:1,2013-06-03T22:00:00Z,26.5255,-82.0032,4.45,1111122 
SCCF RECON,ioos:station:SCCF:13:1,2013-06-03T23:00:00Z,26.5255,-82.0032,4.69,1111122 
SCCF RECON,ioos:station:SCCF:13:1,2013-06-04T00:00:00Z,26.5255,-82.0032,5.21,1111122 
SCCF RECON,ioos:station:SCCF:13:1,2013-06-04T01:00:00Z,26.5255,-82.0032,3.99,1111122 
SCCF RECON,ioos:station:SCCF:13:1,2013-06-04T02:00:00Z,26.5255,-82.0032,3.08,1111122 
SCCF RECON,ioos:station:SCCF:13:1,2013-06-04T03:00:00Z,26.5255,-82.0032,3.3,1111122 
SCCF RECON,ioos:station:SCCF:13:1,2013-06-04T04:00:00Z,26.5255,-82.0032,3.31,1111122 
SCCF RECON,ioos:station:SCCF:13:1,2013-06-04T05:00:00Z,26.5255,-82.0032,3.03,1111122 
SCCF RECON,ioos:station:SCCF:13:1,2013-06-04T06:00:00Z,26.5255,-82.0032,2.92,1111122 
SCCF RECON,ioos:station:SCCF:13:1,2013-06-04T07:00:00Z,26.5255,-82.0032,3.46,1111122 
SCCF RECON,ioos:station:SCCF:13:1,2013-06-04T08:00:00Z,26.5255,-82.0032,3.82,1111122 
SCCF RECON,ioos:station:SCCF:13:1,2013-06-04T09:00:00Z,26.5255,-82.0032,2.83,1111122 
SCCF RECON,ioos:station:SCCF:13:1,2013-06-04T10:00:00Z,26.5255,-82.0032,3.54,1111122 
SCCF RECON,ioos:station:SCCF:13:1,2013-06-04T11:00:00Z,26.5255,-82.0032,3.66,1111122 
SCCF RECON,ioos:station:SCCF:13:1,2013-06-04T12:00:00Z,26.5255,-82.0032,2.96,1111122 
SCCF RECON,ioos:station:SCCF:13:1,2013-06-04T13:00:00Z,26.5255,-82.0032,2.4,1111122 
SCCF RECON,ioos:station:SCCF:13:1,2013-06-04T14:00:00Z,26.5255,-82.0032,2.88,1111122 
SCCF RECON,ioos:station:SCCF:13:1,2013-06-04T15:00:00Z,26.5255,-82.0032,3.09,1111122 
SCCF RECON,ioos:station:SCCF:13:1,2013-06-04T16:00:00Z,26.5255,-82.0032,3.55,1111122 
SCCF RECON,ioos:station:SCCF:13:1,2013-06-04T17:00:00Z,26.5255,-82.0032,3.54,1111122 
SCCF RECON,ioos:station:SCCF:13:1,2013-06-04T18:00:00Z,26.5255,-82.0032,2.89,1111122 
SCCF RECON,ioos:station:SCCF:13:1,2013-06-04T19:00:00Z,26.5255,-82.0032,3.79,1111122 
SCCF RECON,ioos:station:SCCF:13:1,2013-06-04T20:00:00Z,26.5255,-82.0032,4.48,1111122 
SCCF RECON,ioos:station:SCCF:13:1,2013-06-04T21:00:00Z,26.5255,-82.0032,5.34,1111122 
SCCF RECON,ioos:station:SCCF:13:1,2013-06-04T22:00:00Z,26.5255,-82.0032,6.49,1111122 
SCCF RECON,ioos:station:SCCF:13:1,2013-06-04T23:00:00Z,26.5255,-82.0032,6.7,1111122 
SCCF RECON,ioos:station:SCCF:13:1,2013-06-05T00:00:00Z,26.5255,-82.0032,6.6,1111122 
SCCF RECON,ioos:station:SCCF:13:1,2013-06-05T01:00:00Z,26.5255,-82.0032,6.87,1111122 
SCCF RECON,ioos:station:SCCF:13:1,2013-06-05T02:00:00Z,26.5255,-82.0032,6.31,1111122 
SCCF RECON,ioos:station:SCCF:13:1,2013-06-05T03:00:00Z,26.5255,-82.0032,5.3,1111122 
SCCF RECON,ioos:station:SCCF:13:1,2013-06-05T04:00:00Z,26.5255,-82.0032,4.75,1111122 
SCCF RECON,ioos:station:SCCF:13:1,2013-06-05T05:00:00Z,26.5255,-82.0032,4.21,1111122 
SCCF RECON,ioos:station:SCCF:13:1,2013-06-05T06:00:00Z,26.5255,-82.0032,3.5,1111122 
SCCF RECON,ioos:station:SCCF:13:1,2013-06-05T07:00:00Z,26.5255,-82.0032,3.46,1111122 
SCCF RECON,ioos:station:SCCF:13:1,2013-06-05T08:00:00Z,26.5255,-82.0032,3.59,1111122 
SCCF RECON,ioos:station:SCCF:13:1,2013-06-05T09:00:00Z,26.5255,-82.0032,3.76,1111122 
SCCF RECON,ioos:station:SCCF:13:1,2013-06-05T10:00:00Z,26.5255,-82.0032,4.29,1111122 
SCCF RECON,ioos:station:SCCF:13:1,2013-06-05T11:00:00Z,26.5255,-82.0032,4.74,1111122 
SCCF RECON,ioos:station:SCCF:13:1,2013-06-05T12:00:00Z,26.5255,-82.0032,3.12,1111122 
SCCF RECON,ioos:station:SCCF:13:1,2013-06-05T13:00:00Z,26.5255,-82.0032,2.96,1111122 
SCCF RECON,ioos:station:SCCF:13:1,2013-06-05T14:00:00Z,26.5255,-82.0032,3.0,1111122 
SCCF RECON,ioos:station:SCCF:13:1,2013-06-05T15:00:00Z,26.5255,-82.0032,3.03,1111122 
SCCF RECON,ioos:station:SCCF:13:1,2013-06-05T16:00:00Z,26.5255,-82.0032,3.53,1111122 
SCCF RECON,ioos:station:SCCF:13:1,2013-06-05T17:00:00Z,26.5255,-82.0032,4.45,1111122 
SCCF RECON,ioos:station:SCCF:13:1,2013-06-05T18:00:00Z,26.5255,-82.0032,3.52,1111122 
SCCF RECON,ioos:station:SCCF:13:1,2013-06-05T19:00:00Z,26.5255,-82.0032,3.72,1111122 
SCCF RECON,ioos:station:SCCF:13:1,2013-06-05T20:00:00Z,26.5255,-82.0032,6.55,1111122 
SCCF RECON,ioos:station:SCCF:13:1,2013-06-05T21:00:00Z,26.5255,-82.0032,6.63,1111122 
SCCF RECON,ioos:station:SCCF:13:1,2013-06-05T22:00:00Z,26.5255,-82.0032,6.23,1111122 
SCCF RECON,ioos:station:SCCF:13:1,2013-06-05T23:00:00Z,26.5255,-82.0032,6.68,1111122 
SCCF RECON,ioos:station:SCCF:13:1,2013-06-06T00:00:00Z,26.5255,-82.0032,6.32,1111122 
SCCF RECON,ioos:station:SCCF:13:1,2013-06-06T01:00:00Z,26.5255,-82.0032,6.49,1111122 
SCCF RECON,ioos:station:SCCF:13:1,2013-06-06T02:00:00Z,26.5255,-82.0032,6.77,1111122 
SCCF RECON,ioos:station:SCCF:13:1,2013-06-06T03:00:00Z,26.5255,-82.0032,5.11,1111122 
SCCF RECON,ioos:station:SCCF:13:1,2013-06-06T04:00:00Z,26.5255,-82.0032,4.26,1111122 
SCCF RECON,ioos:station:SCCF:13:1,2013-06-06T05:00:00Z,26.5255,-82.0032,3.92,1111122 
SCCF RECON,ioos:station:SCCF:13:1,2013-06-06T06:00:00Z,26.5255,-82.0032,3.97,1111122 
SCCF RECON,ioos:station:SCCF:13:1,2013-06-06T07:00:00Z,26.5255,-82.0032,3.85,1111122 
SCCF RECON,ioos:station:SCCF:13:1,2013-06-06T08:00:00Z,26.5255,-82.0032,3.72,1111122 
SCCF RECON,ioos:station:SCCF:13:1,2013-06-06T09:00:00Z,26.5255,-82.0032,3.4,1111122 
SCCF RECON,ioos:station:SCCF:13:1,2013-06-06T10:00:00Z,26.5255,-82.0032,3.18,1111122 
SCCF RECON,ioos:station:SCCF:13:1,2013-06-06T11:00:00Z,26.5255,-82.0032,3.38,1111122 
SCCF RECON,ioos:station:SCCF:13:1,2013-06-06T12:00:00Z,26.5255,-82.0032,2.33,1111122 
SCCF RECON,ioos:station:SCCF:13:1,2013-06-06T13:00:00Z,26.5255,-82.0032,2.98,1111122 
SCCF RECON,ioos:station:SCCF:13:1,2013-06-06T14:00:00Z,26.5255,-82.0032,2.93,1111122 
SCCF RECON,ioos:station:SCCF:13:1,2013-06-06T15:00:00Z,26.5255,-82.0032,3.81,1111122 
SCCF RECON,ioos:station:SCCF:13:1,2013-06-06T16:00:00Z,26.5255,-82.0032,5.26,1111122 
SCCF RECON,ioos:station:SCCF:13:1,2013-06-06T17:00:00Z,26.5255,-82.0032,7.14,1111122 
SCCF RECON,ioos:station:SCCF:13:1,2013-06-06T18:00:00Z,26.5255,-82.0032,7.21,1111122 
SCCF RECON,ioos:station:SCCF:13:1,2013-06-06T19:00:00Z,26.5255,-82.0032,6.91,1111122 
SCCF RECON,ioos:station:SCCF:13:1,2013-06-06T20:00:00Z,26.5255,-82.0032,6.42,1111122 
SCCF RECON,ioos:station:SCCF:13:1,2013-06-06T21:00:00Z,26.5255,-82.0032,3.93,1111122 
SCCF RECON,ioos:station:SCCF:13:1,2013-06-06T22:00:00Z,26.5255,-82.0032,3.75,1111122 
SCCF RECON,ioos:station:SCCF:13:1,2013-06-06T23:00:00Z,26.5255,-82.0032,4.15,1111122 
SCCF RECON,ioos:station:SCCF:13:1,2013-06-07T00:00:00Z,26.5255,-82.0032,3.86,1111122 
SCCF RECON,ioos:station:SCCF:13:1,2013-06-07T01:00:00Z,26.5255,-82.0032,3.74,1111122 
SCCF RECON,ioos:station:SCCF:13:1,2013-06-07T02:00:00Z,26.5255,-82.0032,3.6,1111122 
SCCF RECON,ioos:station:SCCF:13:1,2013-06-07T03:00:00Z,26.5255,-82.0032,3.58,1111122 
SCCF RECON,ioos:station:SCCF:13:1,2013-06-07T04:00:00Z,26.5255,-82.0032,3.51,1111122 
SCCF RECON,ioos:station:SCCF:13:1,2013-06-07T05:00:00Z,26.5255,-82.0032,3.25,1111122 
SCCF RECON,ioos:station:SCCF:13:1,2013-06-07T06:00:00Z,26.5255,-82.0032,3.15,1111122 
SCCF RECON,ioos:station:SCCF:13:1,2013-06-07T07:00:00Z,26.5255,-82.0032,2.28,1111122 
SCCF RECON,ioos:station:SCCF:13:1,2013-06-07T08:00:00Z,26.5255,-82.0032,2.39,1111122 
SCCF RECON,ioos:station:SCCF:13:1,2013-06-07T09:00:00Z,26.5255,-82.0032,2.75,1111122 
SCCF RECON,ioos:station:SCCF:13:1,2013-06-07T10:00:00Z,26.5255,-82.0032,3.69,1111122 
SCCF RECON,ioos:station:SCCF:13:1,2013-06-07T11:00:00Z,26.5255,-82.0032,3.83,1111122 
SCCF RECON,ioos:station:SCCF:13:1,2013-06-07T12:00:00Z,26.5255,-82.0032,3.59,1111122 
SCCF RECON,ioos:station:SCCF:13:1,2013-06-07T13:00:00Z,26.5255,-82.0032,3.46,1111122 
SCCF RECON,ioos:station:SCCF:13:1,2013-06-07T14:00:00Z,26.5255,-82.0032,2.05,1111122 
SCCF RECON,ioos:station:SCCF:13:1,2013-06-07T15:00:00Z,26.5255,-82.0032,2.78,1111122 
SCCF RECON,ioos:station:SCCF:13:1,2013-06-07T16:00:00Z,26.5255,-82.0032,2.86,1111122 
SCCF RECON,ioos:station:SCCF:13:1,2013-06-07T17:00:00Z,26.5255,-82.0032,6.84,1111122 
SCCF RECON,ioos:station:SCCF:13:1,2013-06-07T18:00:00Z,26.5255,-82.0032,7.22,1111122 
SCCF RECON,ioos:station:SCCF:13:1,2013-06-07T19:00:00Z,26.5255,-82.0032,71.95,1111122 
SCCF RECON,ioos:station:SCCF:13:1,2013-06-07T20:00:00Z,26.5255,-82.0032,13.63,1111122 
SCCF RECON,ioos:station:SCCF:13:1,2013-06-07T21:00:00Z,26.5255,-82.0032,13.8,1111122 
SCCF RECON,ioos:station:SCCF:13:1,2013-06-07T22:00:00Z,26.5255,-82.0032,10.8,1111122 
SCCF RECON,ioos:station:SCCF:13:1,2013-06-07T23:00:00Z,26.5255,-82.0032,7.82,1111122 
SCCF RECON,ioos:station:SCCF:13:1,2013-06-08T00:00:00Z,26.5255,-82.0032,9.42,1111122 
SCCF RECON,ioos:station:SCCF:13:1,2013-06-08T01:00:00Z,26.5255,-82.0032,8.35,1111122 
SCCF RECON,ioos:station:SCCF:13:1,2013-06-08T02:00:00Z,26.5255,-82.0032,7.83,1111122 
SCCF RECON,ioos:station:SCCF:13:1,2013-06-08T03:00:00Z,26.5255,-82.0032,8.33,1111122 
SCCF RECON,ioos:station:SCCF:13:1,2013-06-08T04:00:00Z,26.5255,-82.0032,9.02,1111122 
SCCF RECON,ioos:station:SCCF:13:1,2013-06-08T05:00:00Z,26.5255,-82.0032,10.74,1111122 
SCCF RECON,ioos:station:SCCF:13:1,2013-06-08T06:00:00Z,26.5255,-82.0032,49.5,1111122 
SCCF RECON,ioos:station:SCCF:13:1,2013-06-08T07:00:00Z,26.5255,-82.0032,73.53,1111122 
SCCF RECON,ioos:station:SCCF:13:1,2013-06-08T08:00:00Z,26.5255,-82.0032,73.52,1111122 
SCCF RECON,ioos:station:SCCF:13:1,2013-06-08T09:00:00Z,26.5255,-82.0032,51.42,1111122 
SCCF RECON,ioos:station:SCCF:13:1,2013-06-08T10:00:00Z,26.5255,-82.0032,50.44,1111122 
SCCF RECON,ioos:station:SCCF:13:1,2013-06-08T11:00:00Z,26.5255,-82.0032,66.5,1111122 
SCCF RECON,ioos:station:SCCF:13:1,2013-06-08T12:00:00Z,26.5255,-82.0032,73.53,1111122 
SCCF RECON,ioos:station:SCCF:13:1,2013-06-08T13:00:00Z,26.5255,-82.0032,57.07,1111122 
SCCF RECON,ioos:station:SCCF:13:1,2013-06-08T14:00:00Z,26.5255,-82.0032,29.74,1111122 
SCCF RECON,ioos:station:SCCF:13:1,2013-06-08T15:00:00Z,26.5255,-82.0032,4.08,1111122 
SCCF RECON,ioos:station:SCCF:13:1,2013-06-08T16:00:00Z,26.5255,-82.0032,3.47,1111122 
SCCF RECON,ioos:station:SCCF:13:1,2013-06-08T17:00:00Z,26.5255,-82.0032,3.84,1111122 
SCCF RECON,ioos:station:SCCF:13:1,2013-06-08T18:00:00Z,26.5255,-82.0032,4.44,1111122 
SCCF RECON,ioos:station:SCCF:13:1,2013-06-08T19:00:00Z,26.5255,-82.0032,5.48,1111122 
SCCF RECON,ioos:station:SCCF:13:1,2013-06-08T20:00:00Z,26.5255,-82.0032,5.13,1111122 
SCCF RECON,ioos:station:SCCF:13:1,2013-06-08T21:00:00Z,26.5255,-82.0032,5.57,1111122 
SCCF RECON,ioos:station:SCCF:13:1,2013-06-08T22:00:00Z,26.5255,-82.0032,8.23,1111122 
SCCF RECON,ioos:station:SCCF:13:1,2013-06-08T23:00:00Z,26.5255,-82.0032,9.85,1111122 
SCCF RECON,ioos:station:SCCF:13:1,2013-06-09T00:00:00Z,26.5255,-82.0032,11.72,1111122 
SCCF RECON,ioos:station:SCCF:13:1,2013-06-09T01:00:00Z,26.5255,-82.0032,11.66,1111122 
SCCF RECON,ioos:station:SCCF:13:1,2013-06-09T02:00:00Z,26.5255,-82.0032,10.2,1111122 
SCCF RECON,ioos:station:SCCF:13:1,2013-06-09T03:00:00Z,26.5255,-82.0032,9.9,1111122 
SCCF RECON,ioos:station:SCCF:13:1,2013-06-09T04:00:00Z,26.5255,-82.0032,9.8,1111122 
SCCF RECON,ioos:station:SCCF:13:1,2013-06-09T05:00:00Z,26.5255,-82.0032,9.3,1111122 
SCCF RECON,ioos:station:SCCF:13:1,2013-06-09T06:00:00Z,26.5255,-82.0032,7.97,1111122 
SCCF RECON,ioos:station:SCCF:13:1,2013-06-09T07:00:00Z,26.5255,-82.0032,7.83,1111122 
SCCF RECON,ioos:station:SCCF:13:1,2013-06-09T08:00:00Z,26.5255,-82.0032,6.56,1111122 
SCCF RECON,ioos:station:SCCF:13:1,2013-06-09T09:00:00Z,26.5255,-82.0032,6.15,1111122 
SCCF RECON,ioos:station:SCCF:13:1,2013-06-09T10:00:00Z,26.5255,-82.0032,4.9,1111122 
SCCF RECON,ioos:station:SCCF:13:1,2013-06-09T11:00:00Z,26.5255,-82.0032,6.79,1111122 
SCCF RECON,ioos:station:SCCF:13:1,2013-06-09T12:00:00Z,26.5255,-82.0032,5.7,1111122 
SCCF RECON,ioos:station:SCCF:13:1,2013-06-09T13:00:00Z,26.5255,-82.0032,6.49,1111122 
SCCF RECON,ioos:station:SCCF:13:1,2013-06-09T14:00:00Z,26.5255,-82.0032,5.99,1111122 
SCCF RECON,ioos:station:SCCF:13:1,2013-06-09T15:00:00Z,26.5255,-82.0032,3.88,1111122 
SCCF RECON,ioos:station:SCCF:13:1,2013-06-09T16:00:00Z,26.5255,-82.0032,5.29,1111122 
SCCF RECON,ioos:station:SCCF:13:1,2013-06-09T17:00:00Z,26.5255,-82.0032,5.45,1111122 
SCCF RECON,ioos:station:SCCF:13:1,2013-06-09T18:00:00Z,26.5255,-82.0032,6.26,1111122 
SCCF RECON,ioos:station:SCCF:13:1,2013-06-09T19:00:00Z,26.5255,-82.0032,6.2,1111122 
SCCF RECON,ioos:station:SCCF:13:1,2013-06-09T20:00:00Z,26.5255,-82.0032,6.83,1111122 
SCCF RECON,ioos:station:SCCF:13:1,2013-06-09T21:00:00Z,26.5255,-82.0032,5.74,1111122 
SCCF RECON,ioos:station:SCCF:13:1,2013-06-09T22:00:00Z,26.5255,-82.0032,6.12,1111122 
SCCF RECON,ioos:station:SCCF:13:1,2013-06-09T23:00:00Z,26.5255,-82.0032,6.63,1111122 
SCCF RECON,ioos:station:SCCF:13:1,2013-06-10T00:00:00Z,26.5255,-82.0032,7.99,1111122 
SCCF RECON,ioos:station:SCCF:13:1,2013-06-10T01:00:00Z,26.5255,-82.0032,8.25,1111122 
SCCF RECON,ioos:station:SCCF:13:1,2013-06-10T02:00:00Z,26.5255,-82.0032,8.26,1111122 
SCCF RECON,ioos:station:SCCF:13:1,2013-06-10T03:00:00Z,26.5255,-82.0032,7.41,1111122 
SCCF RECON,ioos:station:SCCF:13:1,2013-06-10T04:00:00Z,26.5255,-82.0032,7.19,1111122 
SCCF RECON,ioos:station:SCCF:13:1,2013-06-10T05:00:00Z,26.5255,-82.0032,6.69,1111122 
SCCF RECON,ioos:station:SCCF:13:1,2013-06-10T06:00:00Z,26.5255,-82.0032,5.65,1111122 
SCCF RECON,ioos:station:SCCF:13:1,2013-06-10T07:00:00Z,26.5255,-82.0032,4.94,1111122 
SCCF RECON,ioos:station:SCCF:13:1,2013-06-10T08:00:00Z,26.5255,-82.0032,4.49,1111122 
SCCF RECON,ioos:station:SCCF:13:1,2013-06-10T09:00:00Z,26.5255,-82.0032,3.88,1111122 
SCCF RECON,ioos:station:SCCF:13:1,2013-06-10T10:00:00Z,26.5255,-82.0032,4.06,1111122 
SCCF RECON,ioos:station:SCCF:13:1,2013-06-10T11:00:00Z,26.5255,-82.0032,4.3,1111122 
SCCF RECON,ioos:station:SCCF:13:1,2013-06-10T12:00:00Z,26.5255,-82.0032,4.11,1111122 
SCCF RECON,ioos:station:SCCF:13:1,2013-06-10T13:00:00Z,26.5255,-82.0032,5.04,1111122 
SCCF RECON,ioos:station:SCCF:13:1,2013-06-10T14:00:00Z,26.5255,-82.0032,4.77,1111122 
SCCF RECON,ioos:station:SCCF:13:1,2013-06-10T15:00:00Z,26.5255,-82.0032,3.51,1111122 
SCCF RECON,ioos:station:SCCF:13:1,2013-06-10T16:00:00Z,26.5255,-82.0032,4.12,1111122 
SCCF RECON,ioos:station:SCCF:13:1,2013-06-10T17:00:00Z,26.5255,-82.0032,4.86,1111122 
SCCF RECON,ioos:station:SCCF:13:1,2013-06-10T18:00:00Z,26.5255,-82.0032,3.88,1111122 
SCCF RECON,ioos:station:SCCF:13:1,2013-06-10T19:00:00Z,26.5255,-82.0032,3.66,1111122 
SCCF RECON,ioos:station:SCCF:13:1,2013-06-10T20:00:00Z,26.5255,-82.0032,3.31,1111122 
SCCF RECON,ioos:station:SCCF:13:1,2013-06-10T21:00:00Z,26.5255,-82.0032,3.7,1111122 
SCCF RECON,ioos:station:SCCF:13:1,2013-06-10T22:00:00Z,26.5255,-82.0032,2.43,1111122 
SCCF RECON,ioos:station:SCCF:13:1,2013-06-10T23:00:00Z,26.5255,-82.0032,3.75,1111122 
SCCF RECON,ioos:station:SCCF:13:1,2013-06-11T00:00:00Z,26.5255,-82.0032,4.81,1111122 
SCCF RECON,ioos:station:SCCF:13:1,2013-06-11T01:00:00Z,26.5255,-82.0032,5.15,1111122 
SCCF RECON,ioos:station:SCCF:13:1,2013-06-11T02:00:00Z,26.5255,-82.0032,5.48,1111122 
SCCF RECON,ioos:station:SCCF:13:1,2013-06-11T03:00:00Z,26.5255,-82.0032,5.77,1111122 
SCCF RECON,ioos:station:SCCF:13:1,2013-06-11T04:00:00Z,26.5255,-82.0032,5.9,1111122 
SCCF RECON,ioos:station:SCCF:13:1,2013-06-11T05:00:00Z,26.5255,-82.0032,6.03,1111122 
SCCF RECON,ioos:station:SCCF:13:1,2013-06-11T06:00:00Z,26.5255,-82.0032,5.19,1111122 
SCCF RECON,ioos:station:SCCF:13:1,2013-06-11T07:00:00Z,26.5255,-82.0032,4.27,1111122 
SCCF RECON,ioos:station:SCCF:13:1,2013-06-11T08:00:00Z,26.5255,-82.0032,3.65,1111122 
SCCF RECON,ioos:station:SCCF:13:1,2013-06-11T09:00:00Z,26.5255,-82.0032,2.93,1111122 
SCCF RECON,ioos:station:SCCF:13:1,2013-06-11T10:00:00Z,26.5255,-82.0032,2.72,1111122 
SCCF RECON,ioos:station:SCCF:13:1,2013-06-11T11:00:00Z,26.5255,-82.0032,2.83,1111122 
SCCF RECON,ioos:station:SCCF:13:1,2013-06-11T12:00:00Z,26.5255,-82.0032,2.74,1111122 
SCCF RECON,ioos:station:SCCF:13:1,2013-06-11T13:00:00Z,26.5255,-82.0032,3.05,1111122 
SCCF RECON,ioos:station:SCCF:13:1,2013-06-11T14:00:00Z,26.5255,-82.0032,3.8,1111122 
SCCF RECON,ioos:station:SCCF:13:1,2013-06-11T15:00:00Z,26.5255,-82.0032,3.15,1111122 
SCCF RECON,ioos:station:SCCF:13:1,2013-06-11T16:00:00Z,26.5255,-82.0032,3.18,1111122 
SCCF RECON,ioos:station:SCCF:13:1,2013-06-11T17:00:00Z,26.5255,-82.0032,4.28,1111122 
SCCF RECON,ioos:station:SCCF:13:1,2013-06-11T18:00:00Z,26.5255,-82.0032,3.35,1111122 
SCCF RECON,ioos:station:SCCF:13:1,2013-06-11T19:00:00Z,26.5255,-82.0032,2.96,1111122 
SCCF RECON,ioos:station:SCCF:13:1,2013-06-11T20:00:00Z,26.5255,-82.0032,2.66,1111122 
SCCF RECON,ioos:station:SCCF:13:1,2013-06-11T21:00:00Z,26.5255,-82.0032,3.05,1111122 
SCCF RECON,ioos:station:SCCF:13:1,2013-06-11T22:00:00Z,26.5255,-82.0032,5.06,1111122 
SCCF RECON,ioos:station:SCCF:13:1,2013-06-11T23:00:00Z,26.5255,-82.0032,40.62,1111122 
SCCF RECON,ioos:station:SCCF:13:1,2013-06-12T00:00:00Z,26.5255,-82.0032,5.08,1111122 
SCCF RECON,ioos:station:SCCF:13:1,2013-06-12T01:00:00Z,26.5255,-82.0032,4.59,1111122 
SCCF RECON,ioos:station:SCCF:13:1,2013-06-12T02:00:00Z,26.5255,-82.0032,4.99,1111122 
SCCF RECON,ioos:station:SCCF:13:1,2013-06-12T03:00:00Z,26.5255,-82.0032,5.1,1111122 
SCCF RECON,ioos:station:SCCF:13:1,2013-06-12T04:00:00Z,26.5255,-82.0032,5.3,1111122 
SCCF RECON,ioos:station:SCCF:13:1,2013-06-12T05:00:00Z,26.5255,-82.0032,5.58,1111122 
SCCF RECON,ioos:station:SCCF:13:1,2013-06-12T06:00:00Z,26.5255,-82.0032,5.19,1111122 
SCCF RECON,ioos:station:SCCF:13:1,2013-06-12T07:00:00Z,26.5255,-82.0032,4.34,1111122 
SCCF RECON,ioos:station:SCCF:13:1,2013-06-12T08:00:00Z,26.5255,-82.0032,3.91,1111122 
SCCF RECON,ioos:station:SCCF:13:1,2013-06-12T09:00:00Z,26.5255,-82.0032,3.02,1111122 
SCCF RECON,ioos:station:SCCF:13:1,2013-06-12T10:00:00Z,26.5255,-82.0032,2.95,1111122 
SCCF RECON,ioos:station:SCCF:13:1,2013-06-12T11:00:00Z,26.5255,-82.0032,2.63,1111122 
SCCF RECON,ioos:station:SCCF:13:1,2013-06-12T12:00:00Z,26.5255,-82.0032,3.11,1111122 
SCCF RECON,ioos:station:SCCF:13:1,2013-06-12T13:00:00Z,26.5255,-82.0032,2.84,1111122 